PEGASUS DEB, 39309

Orbit data source: Space-Track

PEGASUS DEB, 39309 is space debris in LEO originally from a launch on Thu, 19 May 1994 UTC launched from the Air Force Western Test Range (AFWTR). Debris objects in space refer to the collection of defunct objects orbiting the Earth. Examples of debris include non-operational satellites, rocket bodies, and fragments generated from explosions, collisions, or faulty payload assembly.

Loading next visibility...
Identifier
39309, 1994-029AEU
Orbit
LEO
Country
Flag of USUS
Related business
Manufacturer
Unknown
Mission
Spacecraft
Bus & Motor
Unknown
Mass
Unknown
Launch date (UTC)
1994-05-19 (32 years ago)
Launch vehicle
Unknown
Launch site
Air Force Western Test Range (AFWTR)
Object type
Payload
Rocket body
Debris
Shape & HBR
Unknown shape, 0.1 m
Radar Cross Section
Small (<0.1 m²)

Expand to show TLE details & history
Last TLE update: 3 weeks ago

TLE from 3 weeks ago
0 PEGASUS DEB
1 39309U 94029AEU 26024.75737443  .00005615  00000-0  10983-2 0  9992
2 39309  81.7378  35.2211 0231839 274.9109  82.5653 14.47009266716925
Epoch: 2026-01-24T18:10Z
TLE epoch observation values (Epoch: 2026-01-24T18:10:37.150Z)
Latitude
-0.00002°
Longitude
-1.51095°
Altitude
720.832 km
Speed
7.504 km/s
True Right ascension
02h 20m 53s
True Declination
0° 00' 00"
Sunlit
Object was in daylight at epoch
Visualization orbit readout
Latitude
Unknown
Longitude
Unknown
Altitude
Unknown
Speed
Unknown
Apparent Right ascension
Unknown
Apparent Declination
Unknown
Sunlit
N/A
Visualization observer readout
Local Sidereal Time
05:54:34
Azimuth
Unknown
Elevation
Unknown
Doppler factor
Unknown
Orbital elements
Apogee altitude
897.386 km
Perigee altitude
567.679 km
Semi-major axis
7,110.669 km
Eccentricity
0.02318
Inclination
81.7378°
RAAN
35.2211°
Arg. of periapsis
274.9109°
True anomaly
85.20862°
Mean anomaly
82.5653°
Eccentric anomaly
83.88608°
Mean motion
3.61974 °/min
Orbital period
99.45 mins
BSTAR
0.0010983
Loading maneuver chart data...
Computing Atmospheric mass density...

Documentation

Showing up to 5 results
|